Terug naar catalogus

STARLINK-35639

ActiefCommunicatieVLEO
NORAD 66382·PAYLOAD·🇺🇸 United States

Gelanceerd Nov 8, 2025 vanaf Cape Canaveral Space Force Station

Loading…

Volgende Passages (komende 24 uur)

TLE

VersSource: CelesTrak SupGP

Epoch: Sep 15, 2026, 02:30 UTC

1 66382C 25257C   26258.10465278 -.00023078  00000+0 -68196-3 0  2584
2 66382  53.1592  55.0855 0000979  72.1130 292.7903 15.34397758    14

Volg STARLINK-35639 in realtime met AllMySat

Download on the App Store